Tracking 29892 objects as of 21-Nov-2024
HD Live streaming from Space Station
objects crossing your sky now

STARLINK-5750

Track STARLINK-5750 now!
10-day predictions
STARLINK-5750 is classified as:


NORAD ID: 55594
Int'l Code: 2023-020AB
Perigee: 565.3 km
Apogee: 567.1 km
Inclination: 43.0 °
Period: 95.8 minutes
Semi major axis: 6937 km
RCS: Unknown
Launch date: February 12, 2023
Source: United States (US)
Launch site: AIR FORCE EASTERN TEST RANGE (AFETR)
Your satellite tracking list
Your tracking list is empty




NASA's NSSDC Master Catalog

Two Line Element Set (TLE):
1 55594U 23020AB  24325.63541854  .00000340  00000-0  40269-4 0  9999
2 55594  43.0041  60.1425 0001280 268.1512  91.9184 15.02537813 97616
Source of the keplerian elements: AFSPC